カタログに戻る

CZ-2C DEB

運用中PO
NORAD 43534·DEBRIS·🇨🇳 China

打ち上げ Jul 9, 2018 から Jiuquan Satellite Launch Center

Loading…

次のパス (今後24時間)

TLE

最新Source: Space-Track

元期: Sep 14, 2026, 00:07 UTC

1 43534U 18056F   26257.00486920  .00023388  00000-0  67738-3 0  9998
2 43534  98.1126  96.4334 0011313  66.5686 293.6744 15.35525192447416

AllMySatでCZ-2C DEBをリアルタイム追跡

Download on the App Store